• In Portugal
  • List of Countries
  • For 7 days
  • Water Temperature
  • Satellite Maps
  • Weather Map
  • Weather Widgets
  • user-avatar
    Login

    Hourly Weather Lubango

    Today, 21 September, Friday

    Time Temperature Precipitation Wind Pressure Humidity
    00:00 +15°C° 0 mm 0 mps 608 mmHg 62%
    01:00 +15°C° 0 mm 0 mps 608 mmHg 62%
    02:00 +15°C° 0 mm 0 mps 608 mmHg 61%
    03:00 +14°C° 0 mm 0 mps 608 mmHg 61%
    04:00 +14°C° 0 mm 0 mps 607 mmHg 61%
    05:00 +15°C° 0 mm 0 mps 608 mmHg 57%
    06:00 +16°C° 0 mm 0 mps 608 mmHg 53%
    07:00 +19°C° 0 mm 1 mps 610 mmHg 46%
    08:00 +22°C° 0 mm 1 mps 611 mmHg 38%
    09:00 +25°C° 0 mm 1 mps 612 mmHg 29%
    10:00 +28°C° 0 mm 2 mps 613 mmHg 21%
    11:00 +29°C° 0 mm 2 mps 612 mmHg 18%
    12:00 +31°C° 0 mm 3 mps 612 mmHg 16%
    13:00 +33°C° 0 mm 3 mps 612 mmHg 14%
    14:00 +31°C° 0 mm 3 mps 612 mmHg 16%
    15:00 +30°C° 0 mm 3 mps 611 mmHg 18%
    16:00 +29°C° 0 mm 3 mps 610 mmHg 21%
    17:00 +26°C° 0 mm 3 mps 609 mmHg 30%
    18:00 +22°C° 0 mm 3 mps 609 mmHg 40%
    19:00 +19°C° 0 mm 2 mps 608 mmHg 50%
    20:00 +18°C° 0 mm 2 mps 608 mmHg 55%
    21:00 +18°C° 0 mm 1 mps 608 mmHg 60%
    22:00 +16°C° 0 mm 1 mps 608 mmHg 65%
    23:00 +16°C° 0 mm 1 mps 608 mmHg 66%

    Tomorrow, 22 September, Saturday

    Time Temperature Precipitation Wind Pressure Humidity
    00:00 +15°C° 0 mm 1 mps 608 mmHg 66%
    01:00 +15°C° 0 mm 1 mps 608 mmHg 67%
    02:00 +14°C° 0 mm 1 mps 607 mmHg 67%
    03:00 +13°C° 0 mm 0 mps 607 mmHg 67%
    04:00 +13°C° 0 mm 0 mps 607 mmHg 67%
    05:00 +15°C° 0 mm 1 mps 607 mmHg 60%
    06:00 +16°C° 0 mm 1 mps 608 mmHg 52%
    07:00 +18°C° 0 mm 1 mps 608 mmHg 45%
    08:00 +22°C° 0 mm 1 mps 610 mmHg 35%
    09:00 +25°C° 0 mm 2 mps 611 mmHg 26%
    10:00 +29°C° 0 mm 2 mps 613 mmHg 16%
    11:00 +30°C° 0 mm 3 mps 612 mmHg 15%
    12:00 +31°C° 0 mm 3 mps 612 mmHg 13%
    13:00 +34°C° 0 mm 3 mps 612 mmHg 11%
    14:00 +33°C° 0 mm 3 mps 611 mmHg 13%
    15:00 +31°C° 0 mm 3 mps 611 mmHg 16%
    16:00 +30°C° 0 mm 3 mps 610 mmHg 18%
    17:00 +27°C° 0 mm 3 mps 610 mmHg 28%
    18:00 +24°C° 0 mm 3 mps 609 mmHg 37%
    19:00 +19°C° 0 mm 2 mps 608 mmHg 47%
    20:00 +18°C° 0 mm 2 mps 608 mmHg 51%
    21:00 +18°C° 0 mm 1 mps 609 mmHg 55%
    22:00 +16°C° 0 mm 1 mps 609 mmHg 59%
    23:00 +16°C° 0 mm 1 mps 608 mmHg 59%

    Day after tomorrow, 23 September, Sunday

    Time Temperature Precipitation Wind Pressure Humidity
    00:00 +16°C° 0 mm 1 mps 608 mmHg 60%
    01:00 +15°C° 0 mm 1 mps 608 mmHg 60%
    02:00 +15°C° 0 mm 1 mps 607 mmHg 60%
    03:00 +15°C° 0 mm 1 mps 607 mmHg 59%
    04:00 +14°C° 0 mm 1 mps 607 mmHg 58%
    05:00 +15°C° 0 mm 1 mps 608 mmHg 52%
    06:00 +18°C° 0 mm 1 mps 608 mmHg 45%
    07:00 +18°C° 0 mm 2 mps 609 mmHg 38%
    08:00 +21°C° 0 mm 2 mps 611 mmHg 31%
    09:00 +25°C° 0 mm 3 mps 612 mmHg 23%
    10:00 +29°C° 0 mm 3 mps 613 mmHg 15%
    11:00 +30°C° 0 mm 3 mps 613 mmHg 14%
    12:00 +31°C° 0 mm 3 mps 613 mmHg 13%
    13:00 +34°C° 0 mm 3 mps 612 mmHg 12%
    14:00 +31°C° 0 mm 3 mps 612 mmHg 16%
    15:00 +30°C° 0 mm 4 mps 611 mmHg 20%
    16:00 +28°C° 0 mm 4 mps 610 mmHg 24%
    17:00 +25°C° 0 mm 4 mps 610 mmHg 35%
    18:00 +21°C° 0 mm 3 mps 609 mmHg 46%
    19:00 +18°C° 0 mm 2 mps 608 mmHg 57%
    20:00 +17°C° 0 mm 2 mps 609 mmHg 62%
    21:00 +16°C° 0 mm 2 mps 609 mmHg 66%
    22:00 +15°C° 0 mm 1 mps 609 mmHg 71%
    23:00 +15°C° 0 mm 1 mps 608 mmHg 72%

    24 September, Monday

    Time Temperature Precipitation Wind Pressure Humidity
    00:00 +14°C° 0 mm 1 mps 608 mmHg 74%
    01:00 +14°C° 0 mm 1 mps 608 mmHg 75%
    02:00 +14°C° 0 mm 1 mps 607 mmHg 74%
    03:00 +13°C° 0 mm 0 mps 607 mmHg 73%
    04:00 +13°C° 0 mm 0 mps 607 mmHg 71%
    05:00 +14°C° 0 mm 0 mps 608 mmHg 65%
    06:00 +15°C° 0 mm 0 mps 609 mmHg 58%
    07:00 +16°C° 0 mm 0 mps 609 mmHg 51%
    08:00 +21°C° 0 mm 1 mps 611 mmHg 40%
    09:00 +25°C° 0 mm 2 mps 612 mmHg 28%
    10:00 +28°C° 0 mm 3 mps 613 mmHg 17%
    11:00 +29°C° 0 mm 3 mps 613 mmHg 16%
    12:00 +30°C° 0 mm 3 mps 612 mmHg 15%
    13:00 +31°C° 0 mm 3 mps 612 mmHg 14%
    14:00 +30°C° 0 mm 3 mps 611 mmHg 18%
    15:00 +29°C° 0 mm 4 mps 610 mmHg 21%
    16:00 +28°C° 0 mm 4 mps 610 mmHg 24%
    17:00 +25°C° 0 mm 4 mps 609 mmHg 34%
    18:00 +21°C° 0 mm 3 mps 609 mmHg 45%
    19:00 +18°C° 0 mm 2 mps 608 mmHg 55%
    20:00 +17°C° 0 mm 2 mps 608 mmHg 60%
    21:00 +16°C° 0 mm 1 mps 609 mmHg 64%
    22:00 +15°C° 0 mm 1 mps 609 mmHg 69%
    23:00 +15°C° 0 mm 1 mps 608 mmHg 70%

    25 September, Tuesday

    Time Temperature Precipitation Wind Pressure Humidity
    00:00 +15°C° 0 mm 1 mps 608 mmHg 72%
    01:00 +13°C° 0 mm 0 mps 608 mmHg 73%
    02:00 +14°C° 0 mm 1 mps 607 mmHg 74%
    03:00 +13°C° 0 mm 1 mps 607 mmHg 76%
    04:00 +13°C° 0 mm 1 mps 607 mmHg 77%
    05:00 +14°C° 0 mm 1 mps 607 mmHg 71%
    06:00 +15°C° 0 mm 1 mps 608 mmHg 66%
    07:00 +16°C° 0 mm 1 mps 609 mmHg 60%
    08:00 +20°C° 0 mm 1 mps 610 mmHg 49%
    09:00 +22°C° 0 mm 1 mps 611 mmHg 38%
    10:00 +25°C° 0 mm 2 mps 613 mmHg 27%
    11:00 +27°C° 0 mm 2 mps 612 mmHg 24%
    12:00 +28°C° 0 mm 2 mps 612 mmHg 21%
    13:00 +30°C° 0 mm 2 mps 612 mmHg 18%
    14:00 +29°C° 0 mm 3 mps 611 mmHg 21%
    15:00 +28°C° 0 mm 3 mps 611 mmHg 24%
    16:00 +27°C° 0 mm 4 mps 610 mmHg 26%
    17:00 +24°C° 0 mm 3 mps 610 mmHg 37%
    18:00 +20°C° 0 mm 3 mps 609 mmHg 47%
    19:00 +17°C° 0 mm 3 mps 609 mmHg 58%
    20:00 +16°C° 0 mm 2 mps 609 mmHg 63%
    21:00 +15°C° 0 mm 2 mps 609 mmHg 69%
    22:00 +14°C° 0 mm 1 mps 609 mmHg 75%
    23:00 +14°C° 0 mm 1 mps 608 mmHg 76%

    26 September, Wednesday

    Time Temperature Precipitation Wind Pressure Humidity
    00:00 +13°C° 0 mm 1 mps 608 mmHg 77%
    01:00 +13°C° 0 mm 1 mps 607 mmHg 78%
    02:00 +13°C° 0 mm 1 mps 607 mmHg 77%
    03:00 +12°C° 0 mm 0 mps 607 mmHg 75%
    04:00 +12°C° 0 mm 0 mps 607 mmHg 73%
    05:00 +14°C° 0 mm 1 mps 608 mmHg 67%
    06:00 +15°C° 0 mm 1 mps 609 mmHg 60%
    07:00 +16°C° 0 mm 1 mps 610 mmHg 54%
    08:00 +21°C° 0 mm 1 mps 611 mmHg 42%
    09:00 +24°C° 0 mm 1 mps 612 mmHg 31%
    10:00 +28°C° 0 mm 2 mps 613 mmHg 20%
    11:00 +29°C° 0 mm 2 mps 613 mmHg 18%
    12:00 +30°C° 0 mm 2 mps 613 mmHg 16%
    13:00 +32°C° 0 mm 2 mps 613 mmHg 14%
    14:00 +31°C° 0 mm 3 mps 612 mmHg 16%
    15:00 +30°C° 0 mm 3 mps 611 mmHg 18%
    16:00 +29°C° 0 mm 4 mps 611 mmHg 20%
    17:00 +26°C° 0 mm 4 mps 610 mmHg 29%
    18:00 +22°C° 0 mm 3 mps 609 mmHg 37%
    19:00 +19°C° 0 mm 2 mps 609 mmHg 46%
    20:00 +18°C° 0 mm 2 mps 609 mmHg 50%
    21:00 +18°C° 0 mm 1 mps 609 mmHg 54%
    22:00 +16°C° 0 mm 1 mps 609 mmHg 58%
    23:00 +15°C° 0 mm 1 mps 608 mmHg 59%
    Show more